Regional Weather Roundup
Issued by NWS

Home | Current Version | Previous Version | Text Only | Print | Product List | Glossary Off
Versions: 1 2 3 4 5 6 7 8 9 10 11 12 13 14 15 16 17 18 19 20 21 22 23 24 25 26 27 28 29 30 31 32 33 34 35 36 37 38 39 40 41 42 43 44 45 46 47 48 49 50

000
ASUS43 KDTX 220810
RWRMI
MICHIGAN HOURLY REGIONAL WEATHER ROUNDUP
NATIONAL WEATHER SERVICE DETROIT/PONTIAC MI
300 AM EST WED NOV 22 2017

NOTE: "FAIR" INDICATES FEW OR NO CLOUDS BELOW 12,000 FEET WITH NO
SIGNIFICANT WEATHER AND/OR OBSTRUCTION TO VISIBILITY.

MIZ047>049-052>055-059>063-066>070-074>076-081>083-220900-
SOUTHEAST LOWER MICHIGAN

CITY           SKY/WX    TMP DP  RH WIND       PRES   REMARKS
ADRIAN         CLOUDY    32  21  64 N10       30.13R WCI  24
ALMA           CLOUDY    29  17  60 NW12      30.17R WCI  19
ANN ARBOR      CLOUDY    31  19  61 NW13      30.12R WCI  21
BAD AXE        CLOUDY    29  17  59 N10       30.11R WCI  20
CARO           CLOUDY    30  20  66 NW8       30.12R WCI  23
DETROIT CITY   CLOUDY    33  20  58 N8        30.12R WCI  26
DETROIT        CLOUDY    33  20  58 NW14      30.12R WCI  23
FLINT          CLOUDY    30  19  63 NW10      30.13R WCI  21
GROSSE ILE     CLOUDY    33  23  66 N10G17    30.11R WCI  25
HILLSDALE      CLOUDY    32  21  64 NW8       30.11R WCI  25
HOWELL         CLOUDY    31  21  67 NW7       30.12R WCI  24

CITY           SKY/WX    TMP DP  RH WIND       PRES   REMARKS
JACKSON        CLOUDY    31  19  61 NW13      30.13R WCI  21
LAMBERTVILLE   CLOUDY    36  25  66 NW6       30.13R WCI  31
LANSING        CLOUDY    30  20  66 NW9       30.15R WCI  22
LAPEER         CLOUDY    31  21  66 NW10G16   30.11R WCI  22
MASON          CLOUDY    32  21  63 NW14G20   30.13R WCI  22
MONROE         CLOUDY    34  23  62 NW8       30.12R WCI  28
MT. CLEMENS    CLOUDY    32  22  66 N13       30.09R WCI  23
PONTIAC        CLOUDY    30  20  66 NW13      30.10R WCI  20
PORT HOPE        N/A     31  19  61 NW17G24   30.09R WCI  19
PORT HURON     CLOUDY    32  21  64 NW6       30.10R WCI  26
TRI CITIES     CLOUDY    30  19  63 NW13      30.15R WCI  20
MIDLAND        CLOUDY    30  18  61 W6        30.15R WCI  24
TROY           CLOUDY    34  22  60 NW9G16    30.13R WCI  27
SAGINAW HB     CLOUDY    30  19  64 NW10      30.14R WCI  21
$$
MIZ043>046-050>051-056>058-064>065-071>073-077>080-220900-
SOUTHWEST LOWER MICHIGAN

CITY           SKY/WX    TMP DP  RH WIND       PRES   REMARKS
BATTLE CREEK   CLOUDY    31  20  63 N8        30.15R WCI  23
BENTON HARBOR  CLOUDY    34  19  54 VRB7      30.19R WCI  28
BIG RAPIDS     CLOUDY    28  16  62 NW3       30.14R
COLDWATER      CLOUDY    32  20  62 NW8       30.14R WCI  24
FREMONT        CLOUDY    28  19  66 NW7       30.18R WCI  21
HOLLAND        CLOUDY    31  19  61 N9G16     30.19R WCI  23
GRAND RAPIDS   CLOUDY    30  20  66 NW13      30.17R WCI  20
IONIA          CLOUDY    30  18  59 NW8       30.15R WCI  23
KALAMAZOO      CLOUDY    32  20  61 NW8       30.16R WCI  25
LUDINGTON      CLOUDY    29  17  62 N9        30.18R WCI  20
MARSHALL       CLOUDY    31  19  62 NW6       30.14R WCI  25
MOUNT PLEASANT CLOUDY    29  16  56 W7        30.15R WCI  22
MUSKEGON       CLOUDY    30  17  58 N8        30.20R WCI  22
SOUTH HAVEN    CLOUDY    34  22  60 NW12      30.18R WCI  26
$$
MIZ016>042-220900-
NORTHERN LOWER MICHIGAN

CITY           SKY/WX    TMP DP  RH WIND       PRES   REMARKS
ALPENA         FLURRIES  27  20  75 NW8       30.10R WCI  19
BEAVER ISLAND  MOCLDY    28  20  74 NW12      30.14R WCI  17
BELLAIRE       LGT SNOW  27  26  96 CALM      30.14R
CADILLAC       CLOUDY    26  16  66 NW9G16    30.10R WCI  16
CHARLEVOIX     CLOUDY    29  18  62 NW16G22   30.16R WCI  18
FRANKFORT      CLOUDY    30  18  61 NW9G18    30.17R WCI  22
GAYLORD        LGT SNOW  23  20  88 NW3       30.07R FOG
GRAYLING       MOCLDY    23  18  81 W3        30.10R
HARBOR SPRINGS CLOUDY    28  17  65 W6        30.12R WCI  21
HOUGHTON LAKE  LGT SNOW  25  21  85 W7        30.11R FOG     WCI  17
MANISTEE       FLURRIES  30  19  63 NW10      30.17R WCI  21
OSCODA         CLOUDY    25  13  61 CALM      30.11R
PELLSTON       CLOUDY    27  19  72 N13       30.12R WCI  16
ROGERS CITY    FLURRIES  27  20  76 N10G17    30.11R WCI  17
TRAVERSE CITY  CLOUDY    30  18  60 NW13      30.14R WCI  20
$$
MIZ007>008-015-220900-
EASTERN UPPER MICHIGAN

CITY           SKY/WX    TMP DP  RH WIND       PRES   REMARKS
KINROSS        LGT SNOW  19  16  86 CALM      30.12R FOG
MACKINAC ISLAN CLOUDY    26  19  73 N3        30.11R
NEWBERRY       FLURRIES  21  20  96 CALM      30.11R
S. S. MARIE    CLOUDY    23  11  60 N3        30.11R
MUNISING         N/A     27  25  92 NW8       30.16R WCI  19
$$
MIZ004>006-011>014-085-220900-
CENTRAL UPPER MICHIGAN

CITY           SKY/WX    TMP DP  RH WIND       PRES   REMARKS
MANISTIQUE     LGT SNOW  22  17  81 W12       30.16R WCI  10
ESCANABA       FLURRIES  23  17  78 W8        30.19R WCI  14
MENOMINEE      CLOUDY    25  14  63 NW6       30.24R WCI  18
SAWYER-GWINN   CLOUDY    20  16  83 W13       30.16R WCI   8
$$
MIZ001>003-009>011-084-220900-
WESTERN UPPER MICHIGAN

CITY           SKY/WX    TMP DP  RH WIND       PRES   REMARKS
IRON MOUNTAIN  CLOUDY    22  13  68 W7        30.18R WCI  13
HOUGHTON       CLOUDY    23  15  71 NW14      30.16R WCI  11
COPPER HARBOR    N/A     28  20  71 N21G28    30.17R WCI  15
IRONWOOD       FLURRIES  18  14  84 W13       30.24R WCI   5
$$

ABBREVIATIONS USED IN REMARKS
   TC - TEMPERATURE IN CELSIUS
  WCI - WIND CHILL INDEX
   HX - HEAT INDEX
  VSB - VISIBILITY





USA.gov is the U.S. government's official web portal to all federal, state and local government web resources and services.